Fullerton, CA

10:17 AM PDT on July 24, 2017 (GMT -0700)
Fullerton Municipal

Weather History for KFUL - February, 2014

Change the Weather History Date:

Friday, February 21, 2014

  Actual Average Record
Temperature  
Mean Temperature 66 °F 58 °F  
Max Temperature 79 °F 68 °F 90 °F (2002)
Min Temperature 52 °F 49 °F 40 °F (2011)
Degree Days  
Heating Degree Days 0 7  
Month to date heating degree days 95 159  
Since 1 July heating degree days 478 876  
Cooling Degree Days 1 0  
Month to date cooling degree days 6 0  
Year to date cooling degree days 20 4  
Growing Degree Days 16 (Base 50)    
Moisture  
Dew Point 42 °F    
Average Humidity 46    
Maximum Humidity 67    
Minimum Humidity 25    
Precipitation  
Precipitation 0.00 in 0.12 in 2.50 in (2005)
Month to date precipitation 0.23 2.46  
Year to date precipitation 0.25 5.49  
Since 1 July precipitation 1.56  
Snow  
Snow 0.00 in - - ()
Month to date snowfall 0.0  
Year to date snowfall 0.0  
Snow Depth 0.00 in    
Sea Level Pressure  
Sea Level Pressure 29.93 in    
Wind  
Wind Speed 2 mph (SSW)    
Max Wind Speed 9 mph    
Max Gust Speed 13 mph    
Visibility 9 miles    
Events      
T = Trace of Precipitation, MM = Missing Value Source: NWS Daily Summary

Daily Weather History Graph

Daily Weather History Graph

Search for Another Location

Airport or City:

Trip Planner

Search our weather history database for the weather conditions in past years. The results will help you decide how hot, cold, wet, or windy it might be!

Date:

Astronomy

Feb. 21, 2014 Rise Set
Actual Time 6:29 AM PST 5:41 PM PST
Civil Twilight 6:04 AM PST 6:06 PM PST
Nautical Twilight 5:35 AM PST 6:36 PM PST
Astronomical Twilight 5:06 AM PST 7:04 PM PST
Moon No Moon Rise 10:16 AM PST (2/21)
Length of Visible Light 12h 02m
Length of Day
11h 11m
Waning Gibbous, 59% of the Moon is Illuminated
Feb 21
Waning Gibbous
Feb 22
Last Quarter
Mar 1
New
Mar 8
First Quarter
Mar 16
Full

Hourly Weather History & Observations

Time (PST) Temp. Dew Point Humidity Pressure Visibility Wind Dir Wind Speed Gust Speed Precip Events Conditions
12:53 AM 57.9 °F 39.0 °F 49% 29.97 in 10.0 mi Calm Calm - N/A   Clear
1:53 AM 57.0 °F 33.1 °F 40% 29.96 in 10.0 mi Calm Calm - N/A   Clear
2:53 AM 55.0 °F 37.9 °F 53% 29.96 in 10.0 mi Calm Calm - N/A   Clear
3:53 AM 55.0 °F 37.0 °F 51% 29.96 in 10.0 mi Calm Calm - N/A   Clear
4:53 AM 55.0 °F 37.0 °F 51% 29.95 in 10.0 mi Calm Calm - N/A   Clear
5:53 AM 53.1 °F 37.0 °F 55% 29.95 in 10.0 mi Calm Calm - N/A   Clear
6:53 AM 54.0 °F 37.0 °F 53% 29.96 in 10.0 mi Calm Calm - N/A   Clear
7:53 AM 60.1 °F 35.1 °F 39% 29.98 in 10.0 mi Calm Calm - N/A   Clear
8:53 AM 64.9 °F 34.0 °F 32% 29.99 in 10.0 mi SSE 3.5 mph - N/A   Clear
9:53 AM 68.0 °F 39.0 °F 35% 29.99 in 10.0 mi SW 4.6 mph - N/A   Clear
10:53 AM 73.0 °F 43.0 °F 34% 29.98 in 10.0 mi West 4.6 mph - N/A   Clear
11:53 AM 75.0 °F 46.9 °F 37% 29.95 in 10.0 mi Variable 4.6 mph - N/A   Clear
12:53 PM 77.0 °F 44.1 °F 31% 29.91 in 10.0 mi Variable 5.8 mph - N/A   Clear
1:53 PM 78.1 °F 39.0 °F 25% 29.89 in 10.0 mi SSW 8.1 mph - N/A   Clear
2:53 PM 77.0 °F 39.9 °F 26% 29.87 in 10.0 mi Variable 6.9 mph - N/A   Clear
3:53 PM 75.0 °F 37.0 °F 25% 29.86 in 10.0 mi SW 8.1 mph - N/A   Clear
4:53 PM 71.1 °F 35.1 °F 27% 29.86 in 10.0 mi Variable 3.5 mph - N/A   Clear
5:53 PM 66.9 °F 46.0 °F 47% 29.87 in 10.0 mi SW 3.5 mph - N/A   Clear
6:53 PM 64.0 °F 51.1 °F 63% 29.89 in 10.0 mi South 4.6 mph - N/A   Clear
7:53 PM 63.0 °F 53.1 °F 70% 29.90 in 9.0 mi SSW 3.5 mph - N/A   Clear
8:53 PM 61.0 °F 53.1 °F 75% 29.91 in 8.0 mi Calm Calm - N/A   Unknown
9:53 PM 60.1 °F 55.0 °F 83% 29.92 in 6.0 mi Calm Calm - N/A   Haze
10:53 PM 59.0 °F 54.0 °F 83% 29.92 in 6.0 mi Calm Calm - N/A   Haze
11:53 PM 55.9 °F 52.0 °F 87% 29.92 in 5.0 mi Calm Calm - N/A   Clear